W4JCW Weather Reports


Display with metric or nautical units.
time (UTC)temp
F
wind
direction
speed
MPH
gust
MPH
rain 1hr
in
rain 24hr
in
rain mn
in
humidity
%
barometer
mb
20260505114120 54 95 2.0 2.0 0.00 0.00 0.00 92 1015.6
20260505113617 54 111 1.0 2.0 0.00 0.00 0.00 92 1015.7
20260505113113 53 108 0.0 2.0 0.00 0.00 0.00 93 1015.8
20260505112610 53 110 1.0 2.0 0.00 0.00 0.00 94 1015.6
20260505112109 53 54 0.0 2.0 0.00 0.00 0.00 94 1015.8
20260505111608 53 70 1.0 2.0 0.00 0.00 0.00 94 1015.5
20260505111103 52 75 1.0 2.0 0.00 0.00 0.00 94 1015.6
20260505110600 52 89 0.0 2.0 0.00 0.00 0.00 94 1015.7
20260505102033 51 89 1.0 2.0 0.00 0.00 0.00 94 1015.1
20260505101531 51 99 1.0 2.0 0.00 0.00 0.00 94 1015.1
20260505101027 51 100 1.0 2.0 0.00 0.00 0.00 94 1014.9
20260505100524 51 89 2.0 2.0 0.00 0.00 0.00 94 1014.9
20260505100021 51 105 1.0 2.0 0.00 0.00 0.00 94 1014.8
20260505095517 51 102 1.0 1.0 0.00 0.00 0.00 94 1014.9
20260505095014 51 92 2.0 2.0 0.00 0.00 0.00 94 1014.9
20260505094510 51 85 2.0 2.0 0.00 0.00 0.00 93 1014.6
20260505094007 51 124 2.0 2.0 0.00 0.00 0.00 93 1014.8
20260505093503 51 117 1.0 3.0 0.00 0.00 0.00 93 1014.8
20260505093000 51 116 0.0 1.0 0.00 0.00 0.00 93 1014.7
20260505092458 51 78 1.0 2.0 0.00 0.00 0.00 93 1015.0
20260505091955 51 97 0.0 2.0 0.00 0.00 0.00 93 1014.7
20260505091453 51 89 1.0 2.0 0.00 0.00 0.00 92 1014.8
20260505090951 51 110 1.0 2.0 0.00 0.00 0.00 92 1014.9
20260505090449 51 107 2.0 2.0 0.00 0.00 0.00 92 1014.8
20260505085945 52 98 2.0 2.0 0.00 0.00 0.00 92 1014.6
20260505085443 52 110 2.0 2.0 0.00 0.00 0.00 92 1014.9
20260505084942 52 105 0.0 2.0 0.00 0.00 0.00 92 1014.7
20260505084440 52 100 1.0 2.0 0.00 0.00 0.00 91 1014.9
20260505083937 52 100 2.0 2.0 0.00 0.00 0.00 91 1014.7
20260505083434 52 130 0.0 1.0 0.00 0.00 0.00 91 1014.6
20260505082930 52 92 2.0 2.0 0.00 0.00 0.00 91 1014.5
20260505082426 52 117 1.0 2.0 0.00 0.00 0.00 91 1014.7
20260505081923 53 97 2.0 2.0 0.00 0.00 0.00 90 1014.5
20260505081420 53 85 1.0 2.0 0.00 0.00 0.00 90 1014.5
20260505080917 53 106 2.0 2.0 0.00 0.00 0.00 90 1014.6
20260505080413 53 117 0.0 2.0 0.00 0.00 0.00 89 1014.4
20260505075908 53 85 2.0 2.0 0.00 0.00 0.00 89 1014.4
20260505075405 53 80 2.0 2.0 0.00 0.00 0.00 89 1014.4
20260505074903 53 92 2.0 2.0 0.00 0.00 0.00 89 1014.1
20260505074400 53 91 2.0 2.0 0.00 0.00 0.00 89 1014.3
20260505073857 53 103 1.0 2.0 0.00 0.00 0.00 88 1014.5
20260505073355 54 71 0.0 2.0 0.00 0.00 0.00 88 1014.3
20260505072852 54 73 2.0 2.0 0.00 0.00 0.00 88 1014.2
20260505072348 54 78 2.0 2.0 0.00 0.00 0.00 87 1014.3
20260505071844 54 92 2.0 2.0 0.00 0.00 0.00 87 1014.2
20260505071340 54 73 2.0 2.0 0.00 0.00 0.00 87 1014.3
20260505070839 54 73 2.0 3.0 0.00 0.00 0.00 87 1014.3
20260505070335 54 102 1.0 2.0 0.00 0.00 0.00 86 1014.3
20260505065830 54 93 2.0 2.0 0.00 0.00 0.00 86 1014.2
20260505065327 55 103 0.0 2.0 0.00 0.00 0.00 86 1014.1
20260505064824 55 139 1.0 2.0 0.00 0.00 0.00 86 1014.3
20260505064321 55 103 2.0 2.0 0.00 0.00 0.00 85 1014.2
20260505063820 55 110 1.0 2.0 0.00 0.00 0.00 85 1014.1
20260505063315 55 101 1.0 2.0 0.00 0.00 0.00 85 1014.2
20260505062812 55 93 1.0 2.0 0.00 0.00 0.00 84 1014.2
20260505062309 55 80 0.0 2.0 0.00 0.00 0.00 84 1014.4
20260505061806 55 89 1.0 2.0 0.00 0.00 0.00 84 1014.6
20260505061304 55 118 1.0 2.0 0.00 0.00 0.00 84 1014.5
20260505060801 55 89 0.0 2.0 0.00 0.00 0.00 83 1014.6
20260505060258 56 108 1.0 2.0 0.00 0.00 0.00 83 1014.6
20260505055754 56 72 0.0 2.0 0.00 0.00 0.00 82 1014.6
20260505055250 56 122 0.0 1.0 0.00 0.00 0.00 82 1014.4
20260505054747 56 89 0.0 2.0 0.00 0.00 0.00 81 1014.6
20260505054245 56 97 1.0 2.0 0.00 0.00 0.00 81 1014.7
20260505053743 57 106 0.0 2.0 0.00 0.00 0.00 80 1014.5
20260505053239 57 117 1.0 2.0 0.00 0.00 0.00 80 1014.5
20260505052737 57 92 1.0 2.0 0.00 0.00 0.00 80 1014.8
20260505052233 57 89 2.0 2.0 0.00 0.00 0.00 80 1014.7
20260505051731 57 96 1.0 2.0 0.00 0.00 0.00 79 1014.7
20260505051229 57 116 0.0 1.0 0.00 0.00 0.00 79 1014.8
20260505050726 57 96 2.0 2.0 0.00 0.00 0.00 78 1014.9
20260505050224 58 113 0.0 2.0 0.00 0.00 0.00 77 1014.9
20260505041654 60 113 0.0 1.0 0.00 0.00 0.00 72 1014.8
20260505041151 60 55 1.0 2.0 0.00 0.00 0.00 72 1015.0
20260505040648 60 81 1.0 2.0 0.00 0.00 0.00 71 1015.0
20260505040146 60 114 1.0 2.0 0.00 0.00 0.00 70 1015.0
20260505035642 60 123 1.0 2.0 0.00 0.00 0.00 70 1014.9
20260505035138 61 121 0.0 2.0 0.00 0.00 0.00 70 1015.0
20260505034635 61 131 0.0 2.0 0.00 0.00 0.00 69 1014.9
20260505034132 61 98 0.0 2.0 0.00 0.00 0.00 69 1015.0
20260505033628 61 99 2.0 2.0 0.00 0.00 0.00 68 1014.9
20260505033127 62 107 1.0 2.0 0.00 0.00 0.00 67 1015.1
20260505032625 62 100 0.0 2.0 0.00 0.00 0.00 67 1015.0
20260505032121 62 109 0.0 2.0 0.00 0.00 0.00 66 1015.2
20260505031618 62 110 0.0 2.0 0.00 0.00 0.00 66 1015.0
20260505031114 62 98 2.0 2.0 0.00 0.00 0.00 65 1015.0
20260505030611 63 125 2.0 2.0 0.00 0.00 0.00 64 1015.3
20260505030107 63 112 0.0 2.0 0.00 0.00 0.00 64 1015.2
20260505025603 64 132 1.0 2.0 0.00 0.00 0.00 63 1015.0
20260505025102 64 117 1.0 2.0 0.00 0.00 0.00 63 1015.1
20260505024559 64 148 1.0 2.0 0.00 0.00 0.00 62 1014.9
20260505024056 64 139 0.0 2.0 0.00 0.00 0.00 61 1015.0
20260505023553 64 113 0.0 1.0 0.00 0.00 0.00 61 1014.9
20260505023051 65 113 0.0 2.0 0.00 0.00 0.00 60 1014.9
20260505022548 65 209 0.0 1.0 0.00 0.00 0.00 59 1014.8
20260505022045 65 133 0.0 0.0 0.00 0.00 0.00 59 1014.9
20260505021542 66 139 0.0 1.0 0.00 0.00 0.00 58 1014.8
20260505021039 66 269 0.0 2.0 0.00 0.00 0.00 58 1014.7
20260505020538 66 124 0.0 3.0 0.00 0.00 0.00 58 1014.6
20260505020036 66 116 1.0 1.0 0.00 0.00 0.00 58 1014.4
20260505015533 66 191 0.0 1.0 0.00 0.00 0.00 56 1014.5
20260505015030 66 120 0.0 1.0 0.00 0.00 0.00 55 1014.3
20260505014526 66 299 0.0 1.0 0.00 0.00 0.00 55 1014.4
20260505014024 67 142 0.0 2.0 0.00 0.00 0.00 54 1014.4
20260505013521 67 228 0.0 2.0 0.00 0.00 0.00 54 1014.4
20260505013018 67 166 0.0 2.0 0.00 0.00 0.00 52 1014.1
20260505012516 67 140 0.0 2.0 0.00 0.00 0.00 52 1013.9
20260505012013 66 142 0.0 2.0 0.00 0.00 0.00 52 1014.1
20260505011508 66 66 0.0 2.0 0.00 0.00 0.00 51 1014.1
20260505011006 66 72 0.0 2.0 0.00 0.00 0.00 51 1013.9
20260505010501 67 124 0.0 0.0 0.00 0.00 0.00 50 1013.9
20260505005957 67 126 0.0 0.0 0.00 0.00 0.00 49 1013.7
20260505005454 68 112 0.0 1.0 0.00 0.00 0.00 49 1013.5
20260505004952 68 91 0.0 1.0 0.00 0.00 0.00 48 1013.7
20260505004449 68 111 2.0 2.0 0.00 0.00 0.00 47 1013.4
20260505003945 69 130 0.0 2.0 0.00 0.00 0.00 47 1013.6
20260505003442 69 114 1.0 2.0 0.00 0.00 0.00 46 1013.2
20260505002939 69 135 0.0 2.0 0.00 0.00 0.00 45 1013.3
20260505002435 70 155 0.0 1.0 0.00 0.00 0.00 45 1013.3
20260505001933 70 125 0.0 1.0 0.00 0.00 0.00 44 1013.3
20260505001431 71 160 0.0 1.0 0.00 0.00 0.00 44 1013.3
20260505000928 71 53 0.0 2.0 0.00 0.00 0.00 43 1012.8
20260505000428 72 156 1.0 1.0 0.00 0.00 0.00 43 1013.1
20260504235922 72 87 1.0 1.0 0.00 0.00 0.00 42 1013.0
20260504235420 73 154 0.0 1.0 0.00 0.00 0.00 41 1012.9
20260504234915 73 89 0.0 1.0 0.00 0.00 0.00 41 1013.0
20260504234413 73 124 0.0 1.0 0.00 0.00 0.00 40 1012.8
20260504233909 74 269 0.0 1.0 0.00 0.00 0.00 40 1013.0
20260504233405 74 89 0.0 0.0 0.00 0.00 0.00 39 1013.0
20260504232902 74 179 1.0 1.0 0.00 0.00 0.00 39 1012.9
20260504232359 75 269 0.0 3.0 0.00 0.00 0.00 39 1012.8
20260504231856 75 291 2.0 2.0 0.00 0.00 0.00 38 1012.7
20260504231352 75 234 1.0 2.0 0.00 0.00 0.00 37 1012.8
20260504230849 76 236 2.0 2.0 0.00 0.00 0.00 37 1012.8
20260504230346 76 193 1.0 2.0 0.00 0.00 0.00 37 1012.6
20260504225845 76 180 1.0 3.0 0.00 0.00 0.00 35 1012.7
20260504225341 76 188 2.0 3.0 0.00 0.00 0.00 36 1012.7
20260504224839 76 216 2.0 3.0 0.00 0.00 0.00 35 1012.7
20260504224335 77 118 1.0 2.0 0.00 0.00 0.00 35 1012.4
20260504223832 77 227 0.0 3.0 0.00 0.00 0.00 35 1012.7
20260504223328 78 210 3.0 3.0 0.00 0.00 0.00 35 1012.9
20260504222824 78 209 3.0 3.0 0.00 0.00 0.00 34 1012.8
20260504222321 78 217 0.0 3.0 0.00 0.00 0.00 34 1012.6
20260504221820 78 213 3.0 3.0 0.00 0.00 0.00 34 1012.7
20260504221316 79 224 5.0 5.0 0.00 0.00 0.00 33 1012.8
20260504220813 79 221 2.0 4.0 0.00 0.00 0.00 33 1012.8
20260504220310 79 319 1.0 2.0 0.00 0.00 0.00 32 1012.7
20260504215808 79 202 4.0 4.0 0.00 0.00 0.00 31 1012.4
20260504215304 80 202 4.0 4.0 0.00 0.00 0.00 31 1012.5
20260504214759 80 210 3.0 3.0 0.00 0.00 0.00 31 1012.6
20260504214256 80 97 0.0 1.0 0.00 0.00 0.00 31 1012.5
20260504213753 80 199 2.0 3.0 0.00 0.00 0.00 31 1012.5
20260504213249 80 209 0.0 3.0 0.00 0.00 0.00 31 1012.7
20260504212746 80 219 1.0 3.0 0.00 0.00 0.00 32 1012.5
20260504212243 80 201 3.0 4.0 0.00 0.00 0.00 30 1012.6
20260504211740 80 335 2.0 2.0 0.00 0.00 0.00 32 1012.5
20260504211236 80 217 6.0 7.0 0.00 0.00 0.00 29 1012.6
20260504210734 80 234 0.0 3.0 0.00 0.00 0.00 30 1012.6
20260504210231 81 245 2.0 4.0 0.00 0.00 0.00 31 1012.7
20260504205728 81 247 1.0 2.0 0.00 0.00 0.00 30 1012.4
20260504205226 80 219 2.0 3.0 0.00 0.00 0.00 31 1012.5
20260504204724 81 40 1.0 3.0 0.00 0.00 0.00 30 1012.5
20260504204222 81 269 0.0 3.0 0.00 0.00 0.00 31 1012.8
20260504203721 80 342 1.0 2.0 0.00 0.00 0.00 31 1012.9
20260504203218 80 206 2.0 3.0 0.00 0.00 0.00 32 1012.9
20260504202717 80 212 2.0 3.0 0.00 0.00 0.00 31 1012.7
20260504202215 80 195 3.0 4.0 0.00 0.00 0.00 30 1013.0
20260504201712 81 238 2.0 4.0 0.00 0.00 0.00 32 1013.2
20260504201209 81 243 1.0 4.0 0.00 0.00 0.00 32 1013.3
20260504200707 81 233 1.0 3.0 0.00 0.00 0.00 32 1013.2
20260504200202 81 239 1.0 5.0 0.00 0.00 0.00 33 1013.2
20260504195659 82 171 3.0 3.0 0.00 0.00 0.00 30 1013.5
20260504195155 81 92 3.0 3.0 0.00 0.00 0.00 32 1013.3
20260504194652 81 218 1.0 3.0 0.00 0.00 0.00 32 1013.5
20260504194148 81 332 0.0 1.0 0.00 0.00 0.00 32 1013.4
20260504193644 80 189 3.0 4.0 0.00 0.00 0.00 29 1013.7
20260504193143 81 246 3.0 5.0 0.00 0.00 0.00 32 1013.7
20260504192640 81 183 2.0 3.0 0.00 0.00 0.00 33 1013.8
20260504192138 81 240 1.0 2.0 0.00 0.00 0.00 32 1013.7
20260504191636 80 204 3.0 4.0 0.00 0.00 0.00 31 1013.6
20260504191132 81 191 3.0 3.0 0.00 0.00 0.00 29 1014.0
20260504190628 80 31 1.0 2.0 0.00 0.00 0.00 30 1014.0
20260504190125 80 329 1.0 3.0 0.00 0.00 0.00 27 1014.0
20260504185621 80 333 3.0 3.0 0.00 0.00 0.00 26 1014.1
20260504185118 80 301 2.0 3.0 0.00 0.00 0.00 25 1014.2
20260504184614 80 151 1.0 3.0 0.00 0.00 0.00 24 1014.2
20260504184109 79 346 2.0 3.0 0.00 0.00 0.00 28 1014.2
20260504183607 80 214 2.0 4.0 0.00 0.00 0.00 25 1014.0
20260504183104 80 58 1.0 2.0 0.00 0.00 0.00 27 1014.4
20260504182601 79 345 2.0 3.0 0.00 0.00 0.00 27 1014.5
20260504182059 79 58 1.0 4.0 0.00 0.00 0.00 28 1014.3
20260504181556 79 192 0.0 3.0 0.00 0.00 0.00 27 1014.6
20260504181054 79 78 3.0 3.0 0.00 0.00 0.00 27 1014.6
20260504180553 79 349 0.0 3.0 0.00 0.00 0.00 28 1014.6
20260504180051 79 74 2.0 3.0 0.00 0.00 0.00 27 1014.7
20260504175548 78 252 2.0 4.0 0.00 0.00 0.00 30 1014.6
20260504175045 78 265 0.0 4.0 0.00 0.00 0.00 28 1014.8
20260504174543 78 269 0.0 3.0 0.00 0.00 0.00 28 1014.6
20260504174039 78 211 4.0 4.0 0.00 0.00 0.00 30 1014.7
20260504173536 78 250 0.0 2.0 0.00 0.00 0.00 30 1014.9
20260504173033 77 23 1.0 4.0 0.00 0.00 0.00 32 1014.9
20260504172529 77 240 1.0 3.0 0.00 0.00 0.00 31 1014.7
20260504172026 77 339 1.0 4.0 0.00 0.00 0.00 34 1015.1
20260504171523 77 338 1.0 3.0 0.00 0.00 0.00 33 1015.0
20260504171020 77 339 1.0 4.0 0.00 0.00 0.00 32 1015.0
20260504170516 77 26 3.0 4.0 0.00 0.00 0.00 31 1015.3
20260504160436 75 355 0.0 3.0 0.00 0.00 0.00 39 1015.8
20260504150900 71 301 0.0 3.0 0.00 0.00 0.00 44 1016.2
20260504150356 70 347 2.0 3.0 0.00 0.00 0.00 43 1016.5
20260504141327 67 65 0.0 2.0 0.00 0.00 0.00 60 1016.4
20260504140823 66 78 0.0 2.0 0.00 0.00 0.00 61 1016.5
20260504140319 66 35 1.0 2.0 0.00 0.00 0.00 59 1016.5
20260504130748 59 58 1.0 2.0 0.00 0.00 0.00 78 1016.3
20260504130244 58 49 2.0 2.0 0.00 0.00 0.00 79 1016.3
20260504120208 50 74 2.0 3.0 0.00 0.00 0.00 97 1016.2